Content
SEND FEEDBACK

Daily
Averages
Monthly
Summary
Spain

ZARAGOZA, SPAIN


Home > Europe > Spain
Elevation: 846 feet     Latitude: 41 40N     Longitude: 001 01W

WEATHER
 
SELECT A DAY
Number of Records: 313,891;   Date Range: 7/1/96 - 8/12/14
 
SHARE

PRINT THIS DATA

[ ← Previous Day ]
WEATHER ALMANAC - NOVEMBER 21, 2013
[ Next Day → ]
[ °C ]   °F
Weather ElementAverageHighLow
Temperature45.1 °F48.2 °F (2:00 pm)42.8 °F (12:30 am)
Dewpoint34.2 °F43 °F (7:00 pm)28.4 °F (7:00 am)
Humidity65.7 %87 % (6:30 pm)43 % (7:00 am)
Barometer29.76 in29.97 in (1:00 am)29.68 in (9:30 pm)
Wind Speed17.9 mph33.4 mph (7:00 am)
Wind Gust47.2 mph (8:00 am)
Weather ElementAverage
Visibility6.7 mi
Wind DirectionW (267.8 °)

Weather ElementTotal
Precipitation---
Heating Degree Days19.5 (Base 65)
Averaged from 51 records on November 21, 2013
WEATHER CONDITIONS BREAKOUT
WIND DIRECTION BREAKOUT
WEATHER BY HOUR - NOVEMBER 21, 2013
[ °C ]   °F
Local TimeTemperatureDewpointHumidityBarometerVisibilityWind DirectionWind SpeedGust SpeedPrecipitationEventsConditions
12:30 AM42.8 °F33.8 °F70 %29.95 in6.2 miWSW (240°)9.2 mphScattered Clouds
1:00 AM46.0 °F33.0 °F50 %29.97 in12.0 miWSW (250°)11.5 mphPartly Cloudy
1:00 AM44.6 °F32.0 °F61 %29.95 in6.2 miWSW (250°)12.7 mphScattered Clouds
1:30 AM44.6 °F32.0 °F61 %29.92 in6.2 miWest (260°)10.4 mphScattered Clouds
2:00 AM44.6 °F32.0 °F61 %29.89 in6.2 miWSW (240°)17.3 mphScattered Clouds
2:30 AM44.6 °F32.0 °F61 %29.89 in6.2 miWSW (250°)17.3 mphScattered Clouds
3:00 AM44.6 °F30.2 °F57 %29.89 in6.2 miWSW (250°)17.3 mphScattered Clouds
3:30 AM44.6 °F30.2 °F57 %29.86 in6.2 miWSW (250°)20.7 mphScattered Clouds
4:00 AM44.6 °F30.2 °F57 %29.83 in6.2 miWSW (250°)23.0 mphScattered Clouds
4:30 AM44.6 °F30.2 °F57 %29.83 in6.2 miWSW (250°)23.0 mphScattered Clouds
5:00 AM44.6 °F30.2 °F57 %29.80 in6.2 miWSW (250°)24.2 mph36.8 mphScattered Clouds
5:30 AM44.6 °F30.2 °F57 %29.80 in6.2 miWSW (250°)21.9 mphScattered Clouds
6:00 AM42.8 °F30.2 °F61 %29.77 in6.2 miWSW (250°)28.8 mph40.3 mphScattered Clouds
6:30 AM42.8 °F30.2 °F61 %29.74 in6.2 miWSW (250°)31.1 mphPartly Cloudy
7:00 AM44.0 °F29.0 °F43 %29.78 in12.0 miWSW (240°)28.8 mphScattered Clouds
7:00 AM42.8 °F28.4 °F57 %29.74 in6.2 miWSW (250°)33.4 mphPartly Cloudy
7:30 AM42.8 °F28.4 °F57 %29.74 in6.2 miWSW (250°)33.4 mph46.0 mphPartly Cloudy
8:00 AM42.8 °F30.2 °F61 %29.74 in6.2 miWSW (250°)32.2 mph47.2 mphPartly Cloudy
8:30 AM44.6 °F30.2 °F57 %29.71 in6.2 miWSW (250°)31.1 mph43.7 mphPartly Cloudy
9:00 AM44.6 °F30.2 °F57 %29.71 in6.2 miWSW (250°)29.9 mph42.6 mphPartly Cloudy
9:30 AM44.6 °F30.2 °F57 %29.71 in6.2 miWest (260°)27.6 mph42.6 mphPartly Cloudy
10:00 AM46.4 °F30.2 °F53 %29.74 in6.2 miWest (260°)25.3 mph42.6 mphPartly Cloudy
10:30 AM44.6 °F32.0 °F61 %29.74 in6.2 miWNW (290°)20.7 mphMostly Cloudy
11:00 AM44.6 °F32.0 °F61 %29.74 in6.2 miWest (280°)17.3 mphMostly Cloudy
11:30 AM44.6 °F32.0 °F61 %29.77 in6.2 miWest (260°)17.3 mphMostly Cloudy
12:00 PM44.6 °F32.0 °F61 %29.77 in6.2 miWest (260°)15.0 mphMostly Cloudy
12:30 PM46.4 °F32.0 °F57 %29.74 in6.2 miWest (270°)16.1 mphMostly Cloudy
1:00 PM47.0 °F31.0 °F43 %29.77 in25.0 miWest (260°)16.1 mphOvercast
1:00 PM46.4 °F32.0 °F57 %29.74 in6.2 miWest (270°)15.0 mphMostly Cloudy
1:30 PM46.4 °F33.8 °F62 %29.74 in6.2 miWest (270°)16.1 mphMostly Cloudy
2:00 PM48.2 °F33.8 °F58 %29.71 in6.2 miWest (270°)13.8 mphMostly Cloudy
2:30 PM48.2 °F33.8 °F58 %29.71 in6.2 miWest (280°)12.7 mphMostly Cloudy
3:00 PM48.2 °F37.4 °F66 %29.71 in6.2 miWest (280°)13.8 mphMostly Cloudy
3:30 PM48.2 °F37.4 °F66 %29.71 in6.2 miWNW (300°)13.8 mphRainLight Rain
4:00 PM48.2 °F39.2 °F71 %29.71 in6.2 miNW (310°)12.7 mphRainLight Rain
4:30 PM48.2 °F39.2 °F71 %29.71 in6.2 miWNW (300°)11.5 mphRainLight Rain
5:00 PM46.4 °F41.0 °F81 %29.71 in5.0 miWNW (290°)10.4 mphRainLight Rain
5:30 PM46.4 °F41.0 °F81 %29.71 in6.2 miWNW (300°)10.4 mphMostly Cloudy
6:00 PM46.4 °F41.0 °F81 %29.71 in6.2 miWNW (300°)10.4 mphMostly Cloudy
6:30 PM44.6 °F41.0 °F87 %29.71 in5.0 miWNW (290°)9.2 mphRainLight Rain
7:00 PM46.0 °F43.0 °F85 %29.75 in6.0 miWest (280°)11.5 mphRainLight Rain
7:00 PM44.6 °F41.0 °F87 %29.71 in5.6 miWNW (290°)10.4 mphRainLight Rain
7:30 PM44.6 °F41.0 °F87 %29.71 in6.2 miWNW (300°)10.4 mphMostly Cloudy
8:00 PM44.6 °F41.0 °F87 %29.71 in6.2 miWest (270°)9.2 mphScattered Clouds
8:30 PM44.6 °F41.0 °F87 %29.71 in6.2 miWest (260°)12.7 mphScattered Clouds
9:00 PM44.6 °F39.2 °F81 %29.71 in6.2 miWest (270°)13.8 mphPartly Cloudy
9:30 PM44.6 °F37.4 °F76 %29.68 in6.2 miWest (270°)12.7 mphPartly Cloudy
10:00 PM42.8 °F37.4 °F81 %29.68 in6.2 miWest (280°)12.7 mphPartly Cloudy
10:30 PM42.8 °F37.4 °F81 %29.68 in6.2 miWest (280°)15.0 mphPartly Cloudy
11:00 PM44.6 °F37.4 °F76 %29.68 in6.2 miWNW (290°)19.6 mphPartly Cloudy
11:30 PM44.6 °F35.6 °F71 %29.68 in6.2 miWNW (290°)23.0 mphPartly Cloudy
Hourly data recorded from LEZG, located miles away from Zaragoza, Spain







STORIES FROM OUR PARTNERS